Location: Bear Valley Meadows
(40.9851°N, 123.0761°W)
Time: 09:21:13
(UTC+00:00)

Hubble Space Telescope - Pass Details

Date: 24 May 2025
Orbit: 488 x 491 km, 28.5° (Epoch: 19 June)

Event Time Altitude Azimuth Distance (km) Brightness Sun altitude
Exits shadow 12:07:50 - 218° (SW) 1,811 2.8 -7.0°
Reaches altitude 10° 12:08:35 10° 209° (SSW) 1,665 2.7 -6.9°
Maximum altitude 12:10:13 12° 183° (S) 1,519 2.7 -6.7°
Drops below altitude 10° 12:11:52 10° 158° (SSE) 1,663 3.2 -6.4°
Sets 12:15:10 0° 128° (SE) 2,542 4.5 -5.9°
